Weather History for Rhinelander, WI

Change the Weather History Date:

Saturday, November 23, 2013

  Actual Average Record
Temperature  
Mean Temperature 7 °F 26 °F  
Max Temperature 14 °F 34 °F 59 °F (1931)
Min Temperature 0 °F 19 °F -9 °F (1950)
Degree Days  
Heating Degree Days 58 39  
Month to date heating degree days 787 756  
Since 1 July heating degree days 1889 1849  
Cooling Degree Days 0 0  
Month to date cooling degree days 0 0  
Year to date cooling degree days 281 261  
Moisture  
Dew Point 1 °F    
Average Humidity 71    
Maximum Humidity 83    
Minimum Humidity 58    
Precipitation  
Precipitation T in 0.06 in 1.42 in (1999)
Month to date precipitation 2.04 1.43  
Year to date precipitation 35.15 29.55  
Snow  
Snow 0.10 in - 12.00 in (1991)
Month to date snowfall 6.9  
Since 1 July snowfall 9.1  
Since 1 September snowfall 9.1  
Snow Depth 2.00 in    
Sea Level Pressure  
Sea Level Pressure 30.57 in    
Wind  
Wind Speed 10 mph (NW)    
Max Wind Speed 17 mph    
Max Gust Speed 29 mph    
Visibility 7 miles    
Events Snow    
T = Trace of Precipitation, MM = Missing Value Source: NWS Daily Summary

Daily Weather History Graph

Daily Weather History Graph

Search for Another Location

Airport:

Trip Planner

Search our weather history database for the weather conditions in past years. The results will help you decide how hot, cold, wet, or windy it might be!

Date:

Astronomy

Nov. 23, 2013 Rise Set
Actual Time 7:08 AM CST 4:20 PM CST
Civil Twilight 6:35 AM CST 4:52 PM CST
Nautical Twilight 5:58 AM CST 5:29 PM CST
Astronomical Twilight 5:23 AM CST 6:04 PM CST
Moon 9:55 PM CST (11/23) 11:19 AM CST (11/23)
Length of Visible Light 10h 17m
Length of Day
9h 11m
Waning Gibbous, 69% of the Moon is Illuminated
Nov 23
Waning Gibbous
Nov 25
Last Quarter
Dec 2
New
Dec 9
First Quarter
Dec 17
Full

Hourly Weather History & Observations

Time (CST) Temp. Windchill Dew Point Humidity Pressure Visibility Wind Dir Wind Speed Gust Speed Precip Events Conditions
12:53 AM 12.0 °F -2.0 °F 1.9 °F 64% 30.47 in 10.0 mi WNW 11.5 mph - N/A   Clear
1:53 AM 10.0 °F -4.5 °F 3.9 °F 76% 30.48 in 9.0 mi WNW 11.5 mph - N/A   Overcast
2:00 AM 10.4 °F -4.8 °F 3.2 °F 73% 30.39 in 7.0 mi West 12.7 mph 18.4 mph 0.00 in Snow Light Snow
2:07 AM 10.4 °F -4.1 °F 3.2 °F 73% 30.39 in 7.0 mi WNW 11.5 mph - 0.00 in Snow Light Snow
2:53 AM 9.0 °F -5.9 °F 3.9 °F 80% 30.50 in 3.0 mi West 11.5 mph - 0.00 in Snow Light Snow
3:19 AM 8.6 °F -2.6 °F 5.0 °F 85% 30.41 in 2.0 mi WNW 6.9 mph - 0.00 in Snow Light Snow
3:29 AM 8.6 °F -3.7 °F 5.0 °F 85% 30.41 in 1.8 mi WNW 8.1 mph - 0.00 in Snow Light Snow
3:48 AM 8.6 °F -4.7 °F 5.0 °F 85% 30.41 in 0.8 mi WNW 9.2 mph - 0.00 in Snow Light Snow
3:53 AM 9.0 °F -4.2 °F 5.0 °F 84% 30.51 in 0.8 mi WNW 9.2 mph - 0.00 in Snow Light Snow
4:00 AM 8.6 °F -3.7 °F 5.0 °F 85% 30.42 in 1.2 mi WNW 8.1 mph - 0.00 in Snow Light Snow
4:21 AM 8.6 °F -1.3 °F 6.8 °F 92% 30.43 in 1.8 mi Variable 5.8 mph - 0.00 in Snow Light Snow
4:24 AM 10.4 °F -3.3 °F 6.8 °F 85% 30.43 in 3.0 mi NNW 10.4 mph - 0.00 in Snow Light Snow
4:45 AM 10.4 °F -2.4 °F 3.2 °F 73% 30.44 in 10.0 mi North 9.2 mph 19.6 mph 0.00 in   Overcast
4:53 AM 10.0 °F -3.7 °F 1.9 °F 70% 30.54 in 9.0 mi North 10.4 mph 19.6 mph 0.00 in   Overcast
5:53 AM 9.0 °F -4.2 °F 1.0 °F 70% 30.57 in 10.0 mi North 9.2 mph 17.3 mph N/A   Overcast
6:04 AM 8.6 °F -4.7 °F 1.4 °F 73% 30.47 in 2.0 mi NNW 9.2 mph 18.4 mph 0.00 in Snow Light Snow
6:12 AM 8.6 °F -4.7 °F 3.2 °F 79% 30.48 in 3.0 mi North 9.2 mph 18.4 mph 0.00 in Snow Light Snow
6:53 AM 8.1 °F -6.2 °F -0.9 °F 67% 30.60 in 10.0 mi North 10.4 mph 24.2 mph 0.00 in   Overcast
7:53 AM 8.1 °F -4.3 °F -0.9 °F 67% 30.62 in 10.0 mi North 8.1 mph - N/A   Overcast
8:29 AM 8.6 °F -3.7 °F -0.4 °F 67% 30.54 in 10.0 mi North 8.1 mph - N/A   Mostly Cloudy
8:39 AM 8.6 °F -7.0 °F -0.4 °F 67% 30.54 in 10.0 mi NNW 12.7 mph 19.6 mph N/A   Overcast
8:53 AM 8.1 °F -5.3 °F -0.9 °F 67% 30.66 in 10.0 mi North 9.2 mph 21.9 mph N/A   Overcast
9:33 AM 8.6 °F -2.6 °F 1.4 °F 73% 30.56 in 2.0 mi Variable 6.9 mph - 0.00 in Snow Light Snow
9:46 AM 8.6 °F -4.7 °F -0.4 °F 67% 30.57 in 5.0 mi NNW 9.2 mph 18.4 mph 0.00 in Snow Light Snow
9:53 AM 10.0 °F -0.9 °F -0.9 °F 61% 30.68 in 8.0 mi Variable 6.9 mph 20.7 mph 0.00 in Snow Light Snow
10:53 AM 9.0 °F -6.6 °F -0.9 °F 64% 30.69 in 5.0 mi NNW 12.7 mph 21.9 mph 0.00 in Snow Light Snow
11:04 AM 10.4 °F -4.1 °F 1.4 °F 67% 30.58 in 2.5 mi NW 11.5 mph 20.7 mph 0.00 in Snow Light Snow
11:13 AM 10.4 °F -4.8 °F -0.4 °F 62% 30.57 in 3.0 mi North 12.7 mph 23.0 mph 0.00 in Snow Light Snow
11:20 AM 8.6 °F -4.7 °F 1.4 °F 73% 30.57 in 2.0 mi NNW 9.2 mph 23.0 mph 0.00 in Snow Light Snow
11:27 AM 10.4 °F -1.5 °F 1.4 °F 67% 30.57 in 3.0 mi NNW 8.1 mph 17.3 mph 0.00 in Snow Light Snow
11:53 AM 10.9 °F -6.5 °F -2.9 °F 54% 30.68 in 10.0 mi NNW 17.3 mph 24.2 mph 0.00 in   Mostly Cloudy
12:53 PM 10.9 °F -2.6 °F -0.9 °F 59% 30.69 in 10.0 mi NNW 10.4 mph 16.1 mph 0.00 in   Overcast
1:53 PM 10.0 °F -2.9 °F -2.0 °F 58% 30.69 in 9.0 mi NNW 9.2 mph 20.7 mph 0.00 in   Overcast
2:53 PM 10.0 °F -5.2 °F -0.0 °F 64% 30.69 in 7.0 mi NW 12.7 mph 19.6 mph 0.00 in Snow Light Snow
3:53 PM 10.0 °F -3.7 °F -0.9 °F 61% 30.70 in 10.0 mi WNW 10.4 mph - 0.00 in   Overcast
4:53 PM 8.1 °F -3.2 °F -2.9 °F 61% 30.71 in 10.0 mi WNW 6.9 mph 16.1 mph N/A   Mostly Cloudy
5:53 PM 6.1 °F -4.3 °F -4.0 °F 63% 30.72 in 10.0 mi WNW 5.8 mph - N/A   Clear
6:53 PM 1.0 °F -11.7 °F -6.0 °F 72% 30.71 in 10.0 mi West 6.9 mph - N/A   Scattered Clouds
7:53 PM 1.9 °F -11.8 °F -5.1 °F 72% 30.71 in 10.0 mi West 8.1 mph - N/A   Scattered Clouds
8:53 PM 5.0 °F -10.0 °F -2.9 °F 70% 30.69 in 10.0 mi West 10.4 mph - N/A   Scattered Clouds
9:53 PM 3.0 °F -8.0 °F -5.1 °F 69% 30.68 in 10.0 mi West 5.8 mph - N/A   Scattered Clouds
10:53 PM 1.9 °F -12.9 °F -4.0 °F 76% 30.67 in 10.0 mi West 9.2 mph - N/A   Clear
11:53 PM 3.0 °F -9.3 °F -2.9 °F 76% 30.67 in 10.0 mi WNW 6.9 mph - N/A   Clear